Date String (YYYY-MM-DD hh:mm:ss) UTC,Instrument flags,absolute air pressure of the measurement (hPa),sample flow rate (lpm),inlet stack bypass flow (lpm),air temperature of the measurement (°C),ambient temperature measured by the external sensor (°C),aerosol sample conditioner tube jacket temperature (°C),OPC LED temperature (°C),internal box temperature (°C),relative humidity of the measurement (%),span deviation,mass concentration of particles derived from Lorenz-Mie calculation of OPC scattering (μg/m³),mass concentration of particles derived from Lorenz-Mie calculation of OPC scattering (μg/m³),mass concentration of particles derived from Lorenz-Mie calculation of OPC scattering (μg/m³)
DateTimeUTC,F1_M11,P_M11,Q1_M11,Q2_M11,T1_M11,T2_M11,T3_M11,T4_M11,T5_M11,U1_M11,ZSPAN_M11,X0_M11,X2_M11,X1_M11
2024-03-20 18:00:00,SystemResetWarning,0828.8,4.99,000.00,021.6,021.1,000.0,029.9,023.4,19.3,0000.0,0010.80,0004.97,0004.03
2024-03-20 18:01:00,SystemResetWarning,0828.8,5.00,000.00,021.6,021.1,000.0,029.9,023.4,19.8,0000.0,0011.40,0004.99,0004.04
2024-03-20 18:02:00,SystemResetWarning,0828.8,5.01,000.00,021.6,021.1,000.0,029.9,023.4,19.7,0000.0,0011.46,0005.00,0004.04
2024-03-20 18:03:00,SystemResetWarning,0828.8,5.00,000.00,021.6,021.1,000.0,030.0,023.5,19.9,0000.0,0012.00,0005.03,0004.07
2024-03-20 18:04:00,SystemResetWarning,0828.8,5.01,000.00,021.7,021.2,000.0,030.0,023.5,19.9,0000.0,0011.86,0005.02,0004.10
2024-03-20 18:05:00,SystemResetWarning,0828.7,4.99,000.00,021.7,021.2,000.0,030.0,023.5,19.5,0000.0,0012.04,0005.08,0004.11
2024-03-20 18:06:00,SystemResetWarning,0828.7,4.99,000.00,021.7,021.2,000.0,030.0,023.5,19.5,0000.0,0012.99,0005.15,0004.13
2024-03-20 18:07:00,SystemResetWarning,0828.7,4.99,000.00,021.7,021.2,000.0,030.0,023.5,19.9,0000.0,0013.77,0005.20,0004.14
2024-03-20 18:08:00,SystemResetWarning,0828.7,5.01,000.00,021.7,021.2,000.0,030.0,023.5,19.5,0000.0,0013.88,0005.18,0004.16
2024-03-20 18:09:00,SystemResetWarning,0828.7,5.02,000.00,021.7,021.2,000.0,030.0,023.5,19.4,0000.0,0014.45,0005.22,0004.19
2024-03-20 18:10:00,SystemResetWarning,0828.7,4.99,000.00,021.7,021.2,000.0,030.0,023.5,19.4,0000.0,0014.59,0005.17,0004.21
2024-03-20 18:11:00,SystemResetWarning,0828.6,4.99,000.00,021.7,021.2,000.0,030.1,023.5,19.3,0000.0,0014.72,0005.24,0004.23
2024-03-20 18:12:00,SystemResetWarning,0828.6,5.01,000.00,021.7,021.2,000.0,030.1,023.6,19.8,0000.0,0014.65,0005.26,0004.25
2024-03-20 18:13:00,SystemResetWarning,0828.6,5.01,000.00,021.7,021.3,000.0,030.1,023.6,19.5,0000.0,0014.92,0005.29,0004.28
2024-03-20 18:14:00,SystemResetWarning,0828.6,4.99,000.00,021.8,021.3,000.0,030.1,023.6,19.8,0000.0,0014.92,0005.30,0004.29
2024-03-20 18:15:00,SystemResetWarning,0828.6,5.00,000.00,021.8,021.3,000.0,030.1,023.6,20.1,0000.0,0015.05,0005.32,0004.30
2024-03-20 18:16:00,SystemResetWarning,0828.6,5.00,000.00,021.8,021.3,000.0,030.1,023.6,19.7,0000.0,0015.52,0005.33,0004.32
2024-03-20 18:17:00,SystemResetWarning,0828.5,4.99,000.00,021.8,021.3,000.0,030.1,023.6,19.6,0000.0,0016.09,0005.35,0004.34
2024-03-20 18:18:00,SystemResetWarning,0828.6,5.00,000.00,021.8,021.4,000.0,030.1,023.7,19.7,0000.0,0015.34,0005.33,0004.36
2024-03-20 18:19:00,SystemResetWarning,0828.5,5.00,000.00,021.8,021.4,000.0,030.2,023.7,20.1,0000.0,0014.59,0005.37,0004.37
2024-03-20 18:20:00,SystemResetWarning,0828.5,5.00,000.00,021.9,021.4,000.0,030.2,023.7,19.9,0000.0,0013.48,0005.37,0004.38
2024-03-20 18:21:00,SystemResetWarning,0828.5,5.00,000.00,021.9,021.4,000.0,030.2,023.7,19.5,0000.0,0013.67,0005.39,0004.38
2024-03-20 18:22:00,SystemResetWarning,0828.4,5.00,000.00,021.9,021.4,000.0,030.2,023.7,19.6,0000.0,0014.82,0005.38,0004.40
2024-03-20 18:23:00,SystemResetWarning,0828.4,5.00,000.00,021.9,021.4,000.0,030.2,023.7,19.6,0000.0,0015.44,0005.37,0004.41
2024-03-20 18:24:00,SystemResetWarning,0828.4,5.01,000.00,021.9,021.4,000.0,030.2,023.8,19.5,0000.0,0015.83,0005.38,0004.42
2024-03-20 18:25:00,SystemResetWarning,0828.4,5.00,000.00,021.9,021.4,000.0,030.2,023.8,19.5,0000.0,0015.05,0005.40,0004.42
2024-03-20 18:26:00,SystemResetWarning,0828.4,4.99,000.00,021.9,021.5,000.0,030.2,023.8,19.8,0000.0,0015.08,0005.43,0004.42
2024-03-20 18:27:00,SystemResetWarning,0828.4,4.99,000.00,022.0,021.5,000.0,030.3,023.8,19.7,0000.0,0014.82,0005.49,0004.44
2024-03-20 18:28:00,SystemResetWarning,0828.4,4.99,000.00,022.0,021.5,000.0,030.3,023.8,19.6,0000.0,0014.24,0005.45,0004.45
2024-03-20 18:29:00,SystemResetWarning,0828.4,5.01,000.00,022.0,021.5,000.0,030.3,023.8,19.6,0000.0,0014.32,0005.48,0004.46
2024-03-20 18:30:00,SystemResetWarning,0828.4,5.01,000.00,022.0,021.5,000.0,030.3,023.8,19.2,0000.0,0015.16,0005.45,0004.47
2024-03-20 18:31:00,SystemResetWarning,0828.4,5.01,000.00,022.0,021.5,000.0,030.3,023.8,19.7,0000.0,0016.09,0005.43,0004.48
2024-03-20 18:32:00,SystemResetWarning,0828.4,5.00,000.00,022.0,021.5,000.0,030.3,023.8,19.6,0000.0,0015.76,0005.40,0004.49
2024-03-20 18:33:00,SystemResetWarning,0828.4,5.00,000.00,022.0,021.6,000.0,030.3,023.9,19.1,0000.0,0015.22,0005.43,0004.49
2024-03-20 18:34:00,SystemResetWarning,0828.4,4.99,000.00,022.0,021.6,000.0,030.3,023.9,19.3,0000.0,0014.59,0005.47,0004.51
2024-03-20 18:35:00,SystemResetWarning,0828.4,4.99,000.00,022.1,021.6,000.0,030.4,023.9,19.6,0000.0,0014.16,0005.48,0004.52
2024-03-20 18:36:00,SystemResetWarning,0828.4,5.00,000.00,022.1,021.6,000.0,030.4,023.9,19.6,0000.0,0015.38,0005.48,0004.53
2024-03-20 18:37:00,SystemResetWarning,0828.3,5.00,000.00,022.1,021.6,000.0,030.4,023.9,19.4,0000.0,0015.54,0005.47,0004.55
2024-03-20 18:38:00,SystemResetWarning,0828.3,5.01,000.00,022.1,021.6,000.0,030.4,023.9,19.9,0000.0,0015.70,0005.47,0004.55
2024-03-20 18:39:00,SystemResetWarning,0828.3,5.00,000.00,022.1,021.6,000.0,030.4,024.0,19.5,0000.0,0015.16,0005.46,0004.54
2024-03-20 18:40:00,SystemResetWarning,0828.3,5.01,000.00,022.1,021.6,000.0,030.4,024.0,19.4,0000.0,0014.96,0005.45,0004.55
2024-03-20 18:41:00,SystemResetWarning,0828.3,5.00,000.00,022.1,021.7,000.0,030.5,024.0,19.0,0000.0,0014.72,0005.48,0004.56
2024-03-20 18:42:00,SystemResetWarning,0828.3,4.99,000.00,022.2,021.7,000.0,030.5,024.0,19.2,0000.0,0014.74,0005.53,0004.56
2024-03-20 18:43:00,SystemResetWarning,0828.3,4.99,000.00,022.2,021.7,000.0,030.5,024.0,19.6,0000.0,0015.02,0005.55,0004.57
2024-03-20 18:44:00,SystemResetWarning,0828.2,4.99,000.00,022.2,021.7,000.0,030.5,024.0,19.8,0000.0,0014.52,0005.54,0004.57
2024-03-20 18:45:00,SystemResetWarning,0828.2,5.01,000.00,022.2,021.7,000.0,030.5,024.0,19.3,0000.0,0014.78,0005.50,0004.58
2024-03-20 18:46:00,SystemResetWarning,0828.2,5.00,000.00,022.2,021.7,000.0,030.5,024.0,19.5,0000.0,0015.10,0005.52,0004.58
2024-03-20 18:47:00,SystemResetWarning,0828.2,5.00,000.00,022.2,021.7,000.0,030.5,024.0,19.3,0000.0,0014.59,0005.52,0004.59
2024-03-20 18:48:00,SystemResetWarning,0828.2,5.00,000.00,022.2,021.7,000.0,030.5,024.1,19.2,0000.0,0014.90,0005.53,0004.59
2024-03-20 18:49:00,SystemResetWarning,0828.2,5.00,000.00,022.2,021.7,000.0,030.6,024.1,19.1,0000.0,0015.51,0005.52,0004.60
2024-03-20 18:50:00,SystemResetWarning,0828.1,5.00,000.00,022.3,021.7,000.0,030.6,024.1,19.3,0000.0,0016.60,0005.57,0004.64
2024-03-20 18:51:00,SystemResetWarning,0828.2,5.00,000.00,022.3,021.7,000.0,030.6,024.1,19.1,0000.0,0017.20,0005.58,0004.65
2024-03-20 18:52:00,SystemResetWarning,0828.1,5.00,000.00,022.3,021.7,000.0,030.6,024.1,18.9,0000.0,0016.96,0005.64,0004.66
2024-03-20 18:53:00,SystemResetWarning,0828.1,5.00,000.00,022.3,021.7,000.0,030.6,024.1,19.2,0000.0,0016.51,0005.70,0004.68
2024-03-20 18:54:00,SystemResetWarning,0828.0,5.00,000.00,022.3,021.7,000.0,030.6,024.1,19.1,0000.0,0017.03,0005.74,0004.69
2024-03-20 18:55:00,SystemResetWarning,0828.0,5.00,000.00,022.3,021.7,000.0,030.6,024.1,19.2,0000.0,0017.56,0005.75,0004.71
2024-03-20 18:56:00,SystemResetWarning,0828.0,5.00,000.00,022.3,021.7,000.0,030.6,024.1,19.7,0000.0,0016.85,0005.79,0004.73
2024-03-20 18:57:00,SystemResetWarning,0828.0,5.00,000.00,022.3,021.7,000.0,030.6,024.1,19.4,0000.0,0016.47,0005.80,0004.75
2024-03-20 18:58:00,SystemResetWarning,0828.1,4.99,000.00,022.3,021.7,000.0,030.7,024.1,19.2,0000.0,0016.48,0005.83,0004.77
2024-03-20 18:59:00,SystemResetWarning,0828.1,5.00,000.00,022.3,021.8,000.0,030.7,024.1,18.7,0000.0,0016.28,0005.84,0004.78
